Вернуться в каталог

STARLINK-32587

АктивенСвязьVLEO
NORAD 62180·PAYLOAD·🇺🇸 United States

Запущен Nov 30, 2024 с Vandenberg Space Force Base

Loading…

Ближайшие Пролёты (ближайшие 24 часа)

TLE

СвежийSource: CelesTrak SupGP

Эпоха: Sep 14, 2026, 22:21 UTC

1 62180C 24225T   26257.93173611 -.00005357  00000+0 -44897-3 0  2578
2 62180  70.0013  47.1240 0003141 274.1121  99.9697 14.98331626    18

Отслеживайте STARLINK-32587 в реальном времени с AllMySat

Download on the App Store